Main page
METAR-TAF:

METAR-TAF

Airports :

Pontoise – Cormeilles Aerodrome

Pontoise, France

latitude: 49-05-48N, longitude: 002-02-27E, elevation: 99 m

Current weather observation

The report was made 24 minutes ago, at 06:00 UTC
Wind 5 kt from the Northwest
Temperature 3°C
Humidity 100%
Pressure 1020 hPa
Visibility 10 km or more
Few clouds at a height of 2400 ft
Overcast at a height of 5600 ft

METAR: LFPT 170600Z AUTO 31005KT 9999 FEW024 OVC056 03/03 Q1020

Time: 07:24 (06:24 UTC)


TAF: missing

Weather observations and forecasts of more than 4000 airports (METAR and TAF reports).

The available stations are represented by yellow and red dots on the map.

Hover mouse over dot to see the name of the station.

Then click to see weather observations and forecasts.

To change the map : click on the green buttons with a black cross to zoom in, on the green button with a dash to zoom out, or on the green arrows for adjacent maps.


METAR-TAF: